This is the latest recevied weather packets stored in our database for station/object PA2JOK. If no packets are shown the sender has not sent any weather packets the latest 10 day(s).
| Time | Temp. | Humidity | Pressure | Rain* | Wind** | Luminosity | Snow |
|---|---|---|---|---|---|---|---|
| 1778004183 | 11.67° C | 66% | 1009.3 hPa | 0 mm | - | - | - |
| 1778003282 | 12.22° C | 66% | 1009.4 hPa | 0 mm | - | - | - |
| 1778002382 | 12.78° C | 65% | 1009.2 hPa | 0 mm | - | - | - |
| 1778001482 | 12.78° C | 64% | 1009.2 hPa | 0 mm | - | - | - |
| 1778000583 | 13.33° C | 63% | 1009.2 hPa | 0 mm | - | - | - |
| 1777999683 | 13.33° C | 63% | 1009.5 hPa | 0 mm | - | - | - |
| 1777998783 | 13.33° C | 63% | 1009.4 hPa | 0 mm | - | - | - |
| 1777997883 | 13.33° C | 63% | 1009.5 hPa | 0 mm | - | - | - |
| 1777996983 | 13.33° C | 65% | 1009.6 hPa | 0 mm | - | - | - |
| 1777996082 | 13.33° C | 67% | 1009.8 hPa | 0 mm | - | - | - |
| 1777995182 | 12.78° C | 68% | 1009.7 hPa | 0 mm | - | - | - |
| 1777994283 | 12.78° C | 69% | 1009.9 hPa | 0 mm | - | - | - |
| 1777993383 | 12.22° C | 70% | 1009.9 hPa | 0 mm | - | - | - |
| 1777992482 | 12.22° C | 71% | 1009.9 hPa | 0 mm | - | - | - |
| 1777991583 | 12.22° C | 72% | 1010.1 hPa | 0 mm | - | - | - |
| 1777990683 | 11.67° C | 73% | 1010.1 hPa | 0 mm | - | - | - |
| 1777989783 | 11.67° C | 73% | 1010.2 hPa | 0 mm | - | - | - |
| 1777988884 | 11.67° C | 74% | 1010.3 hPa | 0 mm | - | - | - |
| 1777987982 | 11.11° C | 76% | 1010.5 hPa | 0 mm | - | - | - |
| 1777987082 | 10.56° C | 78% | 1010.6 hPa | 0 mm | - | - | - |
| 1777986183 | 10.56° C | 78% | 1010.8 hPa | 0 mm | - | - | - |
| 1777985282 | 10.56° C | 77% | 1011 hPa | 0 mm | - | - | - |
| 1777984383 | 10.56° C | 78% | 1010.8 hPa | 0 mm | - | - | - |
| 1777983482 | 10.56° C | 78% | 1010.9 hPa | 0 mm | - | - | - |
| 1777982583 | 10.56° C | 79% | 1010.8 hPa | 0 mm | - | - | - |
* Rain latest hour (hover to see other rain measurements)
** Current wind speed in m/s (hover to see current wind gust speed)